Home > Weather > Burg > Past weeks

Flag for Germany Past Weather in Burg, Saxony-Anhalt, Germany — Yesterday and Last 2 Weeks

Now
70 °F

Sunny.


Feels Like: 70 °F
Forecast: 55 / 73 °F
Wind: 7 mph from West

Location: Leipzig-Schkeuditz

Current Time: Jun 26, 2016 at 9:15:01 PM

Latest Report: Jun 26, 2016 at 8:50 PM


Visibility: 10 mi

Pressure: 30.04 "Hg

Humidity: 50%

Dew Point: 50 °F

Location of BurgLocation

Past Weather in Burg — Graph

°F

Burg Temperature Yesterday

Maximum temperature yesterday: 82 °F (at 2:20 PM)
Minimum temperature yesterday: 63 °F (at 3:20 AM)
Average temperature yesterday: 72 °F

High & Low Weather Summary for the Past Weeks

 TemperatureHumidityPressure
High93 °F (Jun 24, 2:50 PM)100% (Jun 12, 5:20 AM)30.24 "Hg (Jun 12, 5:20 AM)
Low48 °F (Jun 20, 5:20 AM)30% (Jun 24, 2:50 PM)29.47 "Hg (Jun 14, 4:20 PM)
Average66 °F74%29.89 "Hg
* Reported Jun 11 8:20 PM — Jun 26 8:20 PM, Burg, Weather by CustomWeather, © 2016

Note: Actual official high and low records may vary slightly from our data, if they occured in-between our weather recording intervals... More about our weather records

Advertising

Burg Weather History for the Previous 24 Hours

Scroll right to see more
 ConditionsComfort  
Time TempWeatherWind HumidityBarometerVisibility
8:20 PM
Sun, Jun 26
70 °FSunny.7 mph50%30.04 "Hg10 mi
7:20 PM72 °FSunny.12 mph41%30.01 "Hg10 mi
6:50 PM73 °FPassing clouds.7 mph41%30.01 "HgN/A
6:20 PM72 °FSunny.10 mph44%30.01 "Hg10 mi
5:50 PM72 °FSunny.12 mph41%30.04 "Hg10 mi
5:20 PM73 °FPassing clouds.13 mph38%30.01 "HgN/A
4:50 PM73 °FPassing clouds.10 mph38%30.04 "HgN/A
4:20 PM73 °FPassing clouds.13 mph38%30.04 "HgN/A
3:50 PM73 °FPassing clouds.13 mph41%30.04 "HgN/A
3:20 PM72 °FPassing clouds.10 mph41%30.04 "HgN/A
2:50 PM72 °FPassing clouds.12 mph44%30.04 "HgN/A
2:20 PM72 °FPassing clouds.12 mph44%30.04 "HgN/A
1:50 PM70 °FScattered clouds.12 mph43%30.04 "HgN/A
1:20 PM70 °FScattered clouds.12 mph50%30.07 "HgN/A
12:50 PM70 °FScattered clouds.13 mph50%30.07 "HgN/A
12:20 PM66 °FScattered clouds.12 mph56%30.07 "HgN/A
11:50 AM68 °FScattered clouds.10 mph56%30.07 "HgN/A
11:20 AM64 °FPartly sunny.8 mph64%30.07 "HgN/A
10:50 AM66 °FScattered clouds.9 mph60%30.07 "HgN/A
10:20 AM66 °FScattered clouds.10 mph64%30.07 "HgN/A
9:50 AM66 °FScattered clouds.14 mph68%30.07 "HgN/A
9:20 AM64 °FPassing clouds.13 mph73%30.07 "HgN/A
8:50 AM63 °FPassing clouds.13 mph77%30.04 "HgN/A
8:20 AM61 °FPassing clouds.13 mph77%30.04 "HgN/A
7:50 AM61 °FPassing clouds.15 mph83%30.04 "HgN/A
7:20 AM59 °FPassing clouds.8 mph88%30.04 "HgN/A
6:50 AM57 °FPassing clouds.9 mph94%30.04 "HgN/A
6:20 AM57 °FScattered clouds.10 mph94%30.01 "HgN/A
5:50 AM57 °FClear.8 mph88%30.01 "Hg10 mi
5:20 AM57 °FPassing clouds.9 mph88%30.01 "HgN/A
4:50 AM57 °FPassing clouds.14 mph94%29.98 "HgN/A
4:20 AM59 °FPassing clouds.10 mph94%29.98 "HgN/A
3:50 AM59 °FPassing clouds.13 mph94%29.98 "HgN/A
3:20 AM59 °FPassing clouds.15 mph94%29.95 "HgN/A
2:50 AM59 °FPassing clouds.16 mph94%29.95 "HgN/A
2:20 AM61 °FPartly cloudy.10 mph94%29.95 "HgN/A
1:50 AM61 °FPassing clouds.14 mph94%29.95 "Hg5 mi
1:20 AM61 °FLight rain. Passing clouds.12 mph94%29.92 "HgN/A
12:50 AM61 °FMostly cloudy.13 mph94%29.92 "HgN/A
12:20 AM63 °FPassing clouds.17 mph94%29.92 "HgN/A
11:50 PM
Sat, Jun 25
63 °FPassing clouds.20 mph100%29.89 "HgN/A
11:20 PM64 °FPassing clouds.17 mph100%29.89 "HgN/A
10:50 PM64 °FPassing clouds.8 mph100%29.89 "HgN/A
10:20 PM66 °FThunderstorms. Broken clouds.10 mph94%29.86 "HgN/A
9:50 PM70 °FThundershowers. Scattered clouds.8 mph94%29.83 "HgN/A
9:20 PM70 °FBroken clouds.3 mph94%29.80 "HgN/A
Weather by CustomWeather, © 2016

See weather overviewHow to use our weather pages